Mountain Home Air Force Base, ID

11:06 PM MST on February 11, 2016 (GMT -0700)
Mountain Home Air Force Base

Weather History for KMUO - October, 2012

Change the Weather History Date:

Friday, October 12, 2012

  Actual Average Record
Temperature  
Mean Temperature 59 °F 53 °F  
Max Temperature 78 °F 68 °F 87 °F (1950)
Min Temperature 40 °F 37 °F 21 °F (2002)
Degree Days  
Heating Degree Days 6 12  
Month to date heating degree days 159 118  
Cooling Degree Days 0 0  
Month to date cooling degree days 0 2  
Growing Degree Days 10 (Base 50)    
Moisture  
Dew Point 28 °F    
Average Humidity 35    
Maximum Humidity 57    
Minimum Humidity 14    
Precipitation  
Precipitation 0.00 in 0.02 in 0.68 in (1922)
Month to date precipitation 0.00 0.24  
Sea Level Pressure  
Sea Level Pressure 29.83 in    
Wind  
Wind Speed 5 mph (NNW)    
Max Wind Speed 13 mph    
Max Gust Speed 17 mph    
Visibility 10 miles    
Events      
T = Trace of Precipitation, MM = Missing Value Source: NWS Daily Summary

Daily Weather History Graph

Daily Weather History Graph

Search for Another Location

Airport or City:

Trip Planner

Search our weather history database for the weather conditions in past years. The results will help you decide how hot, cold, wet, or windy it might be!

Date:

Astronomy

Oct. 12, 2012 Rise Set
Actual Time 7:54 AM MDT 7:04 PM MDT
Civil Twilight 7:25 AM MDT 7:33 PM MDT
Nautical Twilight 6:52 AM MDT 8:06 PM MDT
Astronomical Twilight 6:19 AM MDT 8:38 PM MDT
Moon 4:37 AM MDT 5:20 PM MDT
Length of Visible Light 12h 07m
Length of Day
11h 10m
Waning Crescent, 10% of the Moon is Illuminated
Oct 12
Waning Crescent
Oct 15
New
Oct 21
First Quarter
Oct 29
Full
Nov 6
Last Quarter

Hourly Weather History & Observations

Time (MDT) Temp. Windchill Dew Point Humidity Pressure Visibility Wind Dir Wind Speed Gust Speed Precip Events Conditions
12:55 AM 47.5 °F - 28.0 °F 47% 29.83 in 10.0 mi West 3.5 mph - N/A   Clear
1:55 AM 46.4 °F 43.5 °F 28.0 °F 49% 29.82 in 10.0 mi WSW 5.8 mph - N/A   Clear
2:55 AM 43.7 °F 42.1 °F 26.4 °F 51% 29.83 in 10.0 mi East 3.5 mph - N/A   Clear
3:55 AM 42.3 °F 39.4 °F 26.8 °F 54% 29.83 in 10.0 mi East 4.6 mph - N/A   Clear
4:55 AM 41.7 °F 38.0 °F 26.6 °F 55% 29.83 in 10.0 mi East 5.8 mph - N/A   Clear
5:55 AM 43.3 °F 40.7 °F 27.1 °F 53% 29.82 in 10.0 mi East 4.6 mph - N/A   Partly Cloudy
6:55 AM 45.3 °F 42.3 °F 27.7 °F 50% 29.83 in 10.0 mi ESE 5.8 mph - N/A   Overcast
7:55 AM 45.9 °F - 27.5 °F 49% 29.86 in 10.0 mi Calm Calm - N/A   Mostly Cloudy
8:55 AM 43.2 °F 41.5 °F 28.8 °F 57% 29.87 in 10.0 mi East 3.5 mph - N/A   Clear
9:55 AM 54.5 °F - 30.0 °F 39% 29.86 in 10.0 mi ESE 5.8 mph - N/A   Scattered Clouds
10:55 AM 63.7 °F - 30.4 °F 29% 29.85 in 10.0 mi East 3.5 mph - N/A   Scattered Clouds
11:55 AM 67.3 °F - 30.7 °F 26% 29.85 in 10.0 mi Variable 3.5 mph - N/A   Clear
12:55 PM 70.5 °F - 31.3 °F 23% 29.83 in 10.0 mi ENE 3.5 mph - N/A   Clear
1:55 PM 71.8 °F - 30.7 °F 22% 29.81 in 10.0 mi Variable 3.5 mph - N/A   Clear
2:55 PM 74.8 °F - 28.8 °F 18% 29.79 in 10.0 mi WNW 8.1 mph - N/A   Clear
3:55 PM 77.2 °F - 27.9 °F 16% 29.77 in 10.0 mi WNW 10.4 mph - N/A   Clear
4:55 PM 78.4 °F - 26.1 °F 15% 29.75 in 10.0 mi NW 10.4 mph 17.3 mph N/A   Clear
5:55 PM 77.0 °F - 24.8 °F 14% 29.75 in 10.0 mi NW 12.7 mph - N/A   Clear
6:55 PM 73.2 °F - 26.4 °F 18% 29.77 in 10.0 mi NNW 9.2 mph - N/A   Clear
7:55 PM 63.7 °F - 25.9 °F 24% 29.80 in 10.0 mi WSW 3.5 mph - N/A   Clear
8:55 PM 58.3 °F - 25.5 °F 28% 29.84 in 10.0 mi West 10.4 mph - N/A   Clear
9:55 PM 55.8 °F - 27.0 °F 33% 29.85 in 10.0 mi NNW 10.4 mph - N/A   Clear
10:55 PM 51.8 °F - 26.6 °F 38% 29.88 in 10.0 mi WNW 6.9 mph - N/A   Clear
11:55 PM 55.2 °F - 29.1 °F 37% 29.88 in 10.0 mi WSW 9.2 mph - N/A   Scattered Clouds